Starlink 31991

operational
NORAD ID: 59963 Int'l Des: 2024-107 Owner: SPXS Country: US Constellation: starlink
LEOCIRCULAR

Starlink 31991について

説明を読み込み中...

リアルタイム位置

3D地球を読み込み中...

次回通過

高度履歴

Altitude vs Time

uPlot chart will show altitude changes over time

軌道要素

1 59963U 24107U 26093.88121451 -.00001226 00000-0 -29305-4 0 9992
2 59963 53.1594 308.5013 0001080 78.5514 281.5608 15.30185647103655
Epoch: Apr 3, 2026 • Age: 10 hours

現在のステータス

高度 484.5 km
速度 7.62 km/s
衛星直下点 -28.80°S, 154.42°W
打ち上げ日 Jun 5, 2024
運用期間 1.8 years
タイプ internet

技術仕様

分類 Payload
質量 730.00 kg
乾燥質量 700.00 kg
総質量 730.00 kg
長さ 0.30 m
直径 4.10 m
スパン 29.00 m
形状 Box + pan
製造者 SPXS
バスタイプ Starlink V2M
フェーズステータス In Orbit
所有者/国 SPXS/US

大規模コンステレーション

Loading constellations...